This is the latest recevied weather packets stored in our database for station/object EW1958. If no packets are shown the sender has not sent any weather packets the latest 10 day(s).
| Time | Temp. | Humidity | Pressure | Rain* | Wind** | Luminosity | Snow |
|---|---|---|---|---|---|---|---|
| 1777909879 | 14.44° C | 81% | 1013.4 hPa | 0 mm | - | - | - |
| 1777909580 | 13.89° C | 85% | 1013.4 hPa | 0 mm | - | - | - |
| 1777909279 | 13.89° C | 89% | 1013.4 hPa | 0 mm | - | - | - |
| 1777908980 | 13.33° C | 87% | 1013.4 hPa | 0 mm | - | - | - |
| 1777908684 | 13.33° C | 92% | 1013.4 hPa | 0 mm | - | - | - |
| 1777908081 | 12.78° C | 95% | 1013.4 hPa | 0 mm | - | - | - |
| 1777907905 | 12.22° C | 95% | 1013.3 hPa | 0 mm | - | - | - |
| 1777907475 | 12.22° C | 95% | 1013.1 hPa | 0 mm | - | - | - |
| 1777907174 | 12.22° C | 95% | 1013.1 hPa | 0 mm | - | - | - |
| 1777906874 | 11.67° C | 95% | 1012.9 hPa | 0 mm | - | - | - |
| 1777906572 | 11.67° C | 95% | 1012.9 hPa | 0 mm | - | - | - |
| 1777906269 | 11.67° C | 95% | 1012.9 hPa | 0 mm | - | - | - |
| 1777905966 | 11.11° C | 95% | 1012.9 hPa | 0 mm | - | - | - |
| 1777905665 | 11.11° C | 95% | 1012.9 hPa | 0 mm | - | - | - |
| 1777905494 | 11.11° C | 95% | 1012.8 hPa | 0 mm | - | - | - |
| 1777905065 | 11.11° C | 94% | 1012.8 hPa | 0 mm | - | - | - |
| 1777904766 | 10.56° C | 94% | 1012.8 hPa | 0 mm | - | - | - |
| 1777904466 | 10.56° C | 94% | 1012.9 hPa | 0 mm | - | - | - |
| 1777904166 | 10.56° C | 94% | 1012.8 hPa | 0 mm | - | - | - |
| 1777903866 | 10.56° C | 94% | 1012.7 hPa | 0 mm | - | - | - |
| 1777903717 | 10.56° C | 94% | 1012.7 hPa | 0 mm | - | - | - |
| 1777903266 | 10.56° C | 94% | 1012.7 hPa | 0 mm | - | - | - |
| 1777902965 | 10.56° C | 94% | 1012.6 hPa | 0 mm | - | - | - |
| 1777902816 | 10.56° C | 94% | 1012.4 hPa | 0 mm | - | - | - |
| 1777902467 | 10.56° C | 94% | 1012.5 hPa | 0 mm | - | - | - |
* Rain latest hour (hover to see other rain measurements)
** Current wind speed in m/s (hover to see current wind gust speed)